Location: Asheville, NC
(35.6000°N, 82.5500°W)
Time: 07:32:04
(UTC-04:00)

Vanguard 1 Rocket - Pass Details

Date: 10 February 2018
Orbit: 652 x 4225 km, 34.3° (Epoch: 20 May)

Event Time Altitude Azimuth Distance (km) Brightness Sun altitude
Rises 07:54:30 0° 287° (WNW) 7,750 11.4 5.4°
Reaches altitude 10° 08:00:44 10° 283° (WNW) 6,235 11.0 6.6°
Maximum altitude 08:16:38 45° 219° (SW) 2,632 9.8 9.5°
Drops below altitude 10° 08:25:09 10° 149° (SSE) 3,423 11.5 11.1°
Sets 08:27:33 0° 142° (SE) 4,085 12.1 11.5°
